Weather History for Hobbs, NM

Change the Weather History Date:

Sunday, October 14, 2012

  Actual Average Record
Temperature  
Mean Temperature 62 °F -  
Max Temperature 77 °F 75 °F 89 °F (2011)
Min Temperature 48 °F 48 °F 33 °F (2008)
Degree Days  
Heating Degree Days 2    
Growing Degree Days 12 (Base 50)    
Moisture  
Dew Point 36 °F    
Average Humidity 43    
Maximum Humidity 71    
Minimum Humidity 19    
Precipitation  
Precipitation 0.00 in - - ()
Sea Level Pressure  
Sea Level Pressure 30.21 in    
Wind  
Wind Speed 9 mph (North)    
Max Wind Speed 13 mph    
Max Gust Speed 17 mph    
Visibility 10 miles    
Events      
Averages and records for this station are not official NWS values.
T = Trace of Precipitation, MM = Missing Value Source: NWS Daily Summary

Daily Weather History Graph

Daily Weather History Graph

Search for Another Location

Airport:

Trip Planner

Search our weather history database for the weather conditions in past years. The results will help you decide how hot, cold, wet, or windy it might be!

Date:

Astronomy

Oct. 14, 2012 Rise Set
Actual Time 6:56 AM MDT 6:20 PM MDT
Civil Twilight 6:31 AM MDT 6:45 PM MDT
Nautical Twilight 6:03 AM MDT 7:13 PM MDT
Astronomical Twilight 5:34 AM MDT 7:42 PM MDT
Moon 5:59 AM MDT (10/14) 5:42 PM MDT (10/14)
Length of Visible Light 12h 13m
Length of Day
11h 23m
Waning Crescent, 1% of the Moon is Illuminated
Oct 14
Waning Crescent
Oct 15
New
Oct 21
First Quarter
Oct 29
Full
Nov 6
Last Quarter

Hourly Weather History & Observations

Time (MDT) Temp. Dew Point Humidity Pressure Visibility Wind Dir Wind Speed Gust Speed Precip Events Conditions
12:15 AM 55.4 °F 35.6 °F 47% 30.11 in 10.0 mi WNW 10.4 mph - N/A   Clear
12:35 AM 53.6 °F 35.6 °F 51% 30.11 in 10.0 mi WNW 10.4 mph - N/A   Clear
12:55 AM 55.4 °F 35.6 °F 47% 30.12 in 10.0 mi WNW 10.4 mph - N/A   Clear
1:15 AM 55.4 °F 33.8 °F 44% 30.12 in 10.0 mi WNW 10.4 mph - N/A   Clear
1:35 AM 57.2 °F 33.8 °F 41% 30.13 in 10.0 mi WNW 11.5 mph - N/A   Clear
1:55 AM 57.2 °F 33.8 °F 41% 30.13 in 10.0 mi WNW 11.5 mph - N/A   Clear
2:15 AM 57.2 °F 35.6 °F 44% 30.13 in 10.0 mi WNW 12.7 mph - N/A   Clear
2:35 AM 55.4 °F 35.6 °F 47% 30.14 in 10.0 mi WNW 10.4 mph - N/A   Clear
2:55 AM 53.6 °F 35.6 °F 51% 30.14 in 10.0 mi NW 11.5 mph - N/A   Clear
3:15 AM 53.6 °F 37.4 °F 54% 30.15 in 10.0 mi WNW 11.5 mph - N/A   Clear
3:35 AM 53.6 °F 37.4 °F 54% 30.15 in 10.0 mi NW 12.7 mph - N/A   Clear
3:55 AM 53.6 °F 37.4 °F 54% 30.15 in 10.0 mi NW 12.7 mph - N/A   Clear
4:15 AM 53.6 °F 37.4 °F 54% 30.16 in 10.0 mi NW 11.5 mph - N/A   Clear
4:35 AM 53.6 °F 37.4 °F 54% 30.17 in 10.0 mi NW 10.4 mph - N/A   Clear
5:50 AM 48.2 °F 39.2 °F 71% 30.19 in 10.0 mi NW 8.1 mph - N/A   Clear
6:50 AM 50.0 °F 39.2 °F 66% 30.22 in 10.0 mi NW 10.4 mph - N/A   Clear
7:50 AM 53.6 °F 39.2 °F 58% 30.25 in 10.0 mi NW 10.4 mph - N/A   Clear
8:50 AM 62.6 °F 39.2 °F 42% 30.28 in 10.0 mi North 10.4 mph - N/A   Clear
9:50 AM 68.0 °F 37.4 °F 33% 30.29 in 10.0 mi North 12.7 mph - N/A   Clear
10:50 AM 71.6 °F 39.2 °F 31% 30.29 in 10.0 mi NNE 12.7 mph - N/A   Clear
11:50 AM 73.4 °F 37.4 °F 27% 30.29 in 10.0 mi NNE 10.4 mph - N/A   Clear
12:50 PM 75.2 °F 32.0 °F 21% 30.28 in 10.0 mi NE 12.7 mph 17.3 mph N/A   Clear
1:45 PM 77.0 °F 35.6 °F 22% 30.24 in 10.0 mi NE 8.1 mph 16.1 mph N/A   Clear
2:50 PM 75.2 °F 32.0 °F 21% 30.23 in 10.0 mi NE 8.1 mph - N/A   Clear
3:50 PM 77.0 °F 32.0 °F 19% 30.22 in 10.0 mi NE 3.5 mph - N/A   Clear
4:50 PM 75.2 °F 32.0 °F 21% 30.20 in 10.0 mi ENE 6.9 mph - N/A   Clear
5:45 PM 73.4 °F 32.0 °F 22% 30.19 in 10.0 mi East 6.9 mph - N/A   Clear
6:15 PM 68.0 °F 33.8 °F 28% 30.19 in 10.0 mi East 5.8 mph - N/A   Clear
6:35 PM 66.2 °F 33.8 °F 30% 30.20 in 10.0 mi East 5.8 mph - N/A   Clear
6:55 PM 64.4 °F 33.8 °F 32% 30.20 in 10.0 mi East 6.9 mph - N/A   Clear
7:15 PM 62.6 °F 35.6 °F 37% 30.21 in 10.0 mi East 5.8 mph - N/A   Clear
7:35 PM 62.6 °F 35.6 °F 37% 30.22 in 10.0 mi East 5.8 mph - N/A   Clear
7:55 PM 60.8 °F 35.6 °F 39% 30.22 in 10.0 mi ENE 5.8 mph - N/A   Clear
8:15 PM 59.0 °F 35.6 °F 42% 30.23 in 10.0 mi ENE 6.9 mph - N/A   Clear
8:35 PM 59.0 °F 35.6 °F 42% 30.24 in 10.0 mi East 5.8 mph - N/A   Clear
8:55 PM 59.0 °F 35.6 °F 42% 30.24 in 10.0 mi East 4.6 mph - N/A   Clear
9:15 PM 59.0 °F 35.6 °F 42% 30.25 in 10.0 mi ENE 5.8 mph - N/A   Clear
9:35 PM 57.2 °F 35.6 °F 44% 30.25 in 10.0 mi NE 3.5 mph - N/A   Clear
9:55 PM 57.2 °F 35.6 °F 44% 30.25 in 10.0 mi Calm Calm - N/A   Clear
10:35 PM 53.6 °F 35.6 °F 51% 30.26 in 10.0 mi Calm Calm - N/A   Clear
10:55 PM 51.8 °F 37.4 °F 58% 30.26 in 10.0 mi Calm Calm - N/A   Clear
11:15 PM 51.8 °F 37.4 °F 58% 30.26 in 10.0 mi Calm Calm - N/A   Clear
11:35 PM 51.8 °F 37.4 °F 58% 30.25 in 10.0 mi Calm Calm - N/A   Clear
11:55 PM 50.0 °F 37.4 °F 62% 30.25 in 10.0 mi Calm Calm - N/A   Clear